Weather History for Saginaw, MI

Change the Weather History Date:

Wednesday, March 20, 2013

  Actual Average Record
Temperature  
Mean Temperature 22 °F 35 °F  
Max Temperature 27 °F 44 °F 82 °F (2012)
Min Temperature 18 °F 27 °F 18 °F (2013)
Degree Days  
Heating Degree Days 43    
Month to date heating degree days  
Since 1 July heating degree days  
Cooling Degree Days 0    
Month to date cooling degree days  
Year to date cooling degree days  
Moisture  
Dew Point 12 °F    
Average Humidity 64    
Maximum Humidity 74    
Minimum Humidity 55    
Precipitation  
Precipitation 0.00 in 0.06 in 0.38 in (2011)
Month to date precipitation 1.31  
Year to date precipitation 4.63  
Snow  
Snow 0.00 in - - ()
Month to date snowfall  
Since 1 July snowfall  
Snow Depth -    
Sea Level Pressure  
Sea Level Pressure 29.90 in    
Wind  
Wind Speed 13 mph (West)    
Max Wind Speed 22 mph    
Max Gust Speed 29 mph    
Visibility 8 miles    
Events Snow    
T = Trace of Precipitation, MM = Missing Value Source: NWS Daily Summary

Daily Weather History Graph

Daily Weather History Graph

Search for Another Location

Airport:

Trip Planner

Search our weather history database for the weather conditions in past years. The results will help you decide how hot, cold, wet, or windy it might be!

Date:

Astronomy

Mar. 20, 2013 Rise Set
Actual Time 7:39 AM EDT 7:48 PM EDT
Civil Twilight 7:10 AM EDT 8:17 PM EDT
Nautical Twilight 6:37 AM EDT 8:51 PM EDT
Astronomical Twilight 6:02 AM EDT 9:25 PM EDT
Moon 1:13 PM EDT (3/20) 3:27 AM EDT (3/20)
Length of Visible Light 13h 07m
Length of Day
12h 09m
First Quarter, 59% of the Moon is Illuminated
Mar 20
First Quarter
Mar 27
Full
Apr 3
Last Quarter
Apr 10
New
Apr 18
First Quarter

Hourly Weather History & Observations

Time (EDT) Temp. Windchill Dew Point Humidity Pressure Visibility Wind Dir Wind Speed Gust Speed Precip Events Conditions
12:53 AM 24.1 °F 12.0 °F 12.0 °F 60% 29.90 in 10.0 mi West 13.8 mph 23.0 mph N/A   Clear
1:53 AM 21.9 °F 10.4 °F 10.9 °F 63% 29.90 in 10.0 mi WSW 11.5 mph - N/A   Clear
2:53 AM 21.0 °F 9.9 °F 10.9 °F 65% 29.91 in 10.0 mi WSW 10.4 mph - N/A   Clear
3:53 AM 21.0 °F 9.3 °F 10.9 °F 65% 29.90 in 10.0 mi WSW 11.5 mph - N/A   Clear
4:53 AM 19.0 °F 8.2 °F 10.0 °F 68% 29.90 in 10.0 mi WSW 9.2 mph - N/A   Clear
5:53 AM 19.9 °F 9.3 °F 10.0 °F 65% 29.90 in 10.0 mi West 9.2 mph - N/A   Clear
6:53 AM 18.0 °F 6.9 °F 10.0 °F 71% 29.90 in 10.0 mi West 9.2 mph - N/A   Clear
7:53 AM 18.0 °F 6.9 °F 9.0 °F 68% 29.91 in 10.0 mi West 9.2 mph - N/A   Clear
8:53 AM 19.9 °F 7.3 °F 10.0 °F 65% 29.92 in 10.0 mi West 12.7 mph - N/A   Clear
9:53 AM 21.9 °F 11.0 °F 12.0 °F 66% 29.92 in 10.0 mi West 10.4 mph - N/A   Clear
10:53 AM 24.1 °F 13.1 °F 12.9 °F 62% 29.91 in 10.0 mi WSW 11.5 mph - N/A   Scattered Clouds
11:53 AM 26.1 °F 13.6 °F 12.0 °F 55% 29.91 in 10.0 mi West 16.1 mph - N/A   Overcast
12:53 PM 26.1 °F 13.1 °F 12.0 °F 55% 29.91 in 10.0 mi WSW 17.3 mph - N/A   Overcast
1:53 PM 26.1 °F 13.6 °F 12.0 °F 55% 29.91 in 10.0 mi WSW 16.1 mph - N/A   Overcast
2:25 PM 24.8 °F 13.4 °F 15.8 °F 69% 29.87 in 2.0 mi WSW 12.7 mph - 0.00 in Snow Light Snow
2:40 PM 26.6 °F 13.1 °F 15.8 °F 64% 29.87 in 6.0 mi WSW 19.6 mph - 0.00 in Snow Light Snow
2:48 PM 26.6 °F 13.1 °F 17.6 °F 69% 29.87 in 10.0 mi WSW 19.6 mph - 0.00 in   Overcast
2:53 PM 25.0 °F 12.2 °F 16.0 °F 69% 29.90 in 6.0 mi WSW 16.1 mph - 0.00 in   Haze
3:14 PM 24.8 °F 11.9 °F 15.8 °F 69% 29.86 in 2.0 mi WSW 16.1 mph - 0.00 in Snow Light Snow
3:20 PM 26.6 °F 14.3 °F 15.8 °F 64% 29.86 in 3.0 mi WSW 16.1 mph - 0.00 in Snow Light Snow
3:53 PM 26.1 °F 11.6 °F 12.9 °F 58% 29.89 in 10.0 mi West 21.9 mph 26.5 mph 0.00 in   Overcast
4:53 PM 25.0 °F 11.7 °F 12.9 °F 60% 29.90 in 9.0 mi West 17.3 mph - 0.00 in   Overcast
5:16 PM 23.0 °F 8.0 °F 15.8 °F 74% 29.88 in 1.5 mi West 20.7 mph 28.8 mph 0.00 in Snow Light Snow
5:24 PM 24.8 °F 13.4 °F 14.0 °F 64% 29.88 in 1.5 mi West 12.7 mph - N/A Snow Light Snow
5:26 PM 24.8 °F 13.4 °F 14.0 °F 64% 29.88 in 3.0 mi West 12.7 mph - 0.00 in Snow Light Snow
5:50 PM 24.8 °F 11.5 °F 14.0 °F 64% 29.89 in 2.0 mi West 17.3 mph 25.3 mph 0.00 in Snow Light Snow
5:53 PM 23.0 °F 9.6 °F 14.0 °F 68% 29.92 in 3.0 mi West 16.1 mph - 0.00 in Snow Light Snow
6:02 PM 24.8 °F 11.5 °F 12.2 °F 59% 29.89 in 9.0 mi West 17.3 mph - N/A   Overcast
6:53 PM 23.0 °F 11.7 °F 10.0 °F 58% 29.93 in 10.0 mi WSW 11.5 mph - 0.00 in   Overcast
7:53 PM 21.9 °F 9.2 °F 10.0 °F 60% 29.94 in 10.0 mi West 13.8 mph - N/A   Mostly Cloudy
8:53 PM 19.9 °F 7.9 °F 9.0 °F 62% 29.95 in 10.0 mi West 11.5 mph - N/A   Partly Cloudy
9:53 PM 19.0 °F 6.1 °F 10.0 °F 68% 29.94 in 10.0 mi West 12.7 mph - N/A   Mostly Cloudy
10:53 PM 18.0 °F 5.4 °F 9.0 °F 68% 29.94 in 10.0 mi West 11.5 mph - N/A   Clear
11:53 PM 18.0 °F 4.8 °F 10.0 °F 71% 29.93 in 10.0 mi West 12.7 mph - N/A   Overcast